Weather in Milwaukee

United States     43°02′27″N   87°54′23″W
temp.,
°C
wind,
m/s
gust,
m/s
humid.,
%
clouds,
%
prec.,
mm/h
press.,
hPa
HPBL,
m
18 may, tue
tue1801:00+12se26944 0.0 1023126
04:00+11ese289823 0.0 1023163
07:00+12ese379295 0.0 1024178
10:00+16se5878100 0.0 1024361
13:00+20se61064100 0.0 1023750
16:00+20sse51167100 0.0 1021827
19:00+16sse31085100 0.1 1021378
22:00+15sse41296100 0.7 1022675
19 may, wed
wed1901:00+15sse61596100 1.8 1021703
04:00+15sse51497100 2.9 1020583
07:00+14sse4129899 3.6 1022456
10:00+16s51297100 3.0 1022552
13:00+20s51085100 3.6 10211019
16:00+20s41088100 1.3 1020536
19:00+20s5118493 1.3 1019618
22:00+17s31293100 0.0 1021401
20 may, thu
thu2001:00+17s41493100 0.0 1021548
04:00+16s51584100 0.0 1021630
07:00+17s51489100 0.3 1022707
10:00+20ssw61177100 0.0 1022691
13:00+23ssw7972100 0.1 10221104
16:00+19ssw51190100 0.3 1023612
19:00+20s31086100 0.3 1022654
22:00+18s3694100 0.0 1023133
21 may, fri
fri2101:00+18s31294100 0.0 1023299
04:00+18ssw41494100 0.0 1023435
07:00+19ssw51489100 0.0 1024561
10:00+23sw61172100 0.0 1024850
13:00+25sw61072100 0.6 10231330
16:00+24sw6117991 1.1 10221149
19:00+22sw51085100 2.7 1022652
22:00+20sw412950 0.1 1023460
22 may, sat
sat2201:00+19wsw4129720 0.4 1023400
04:00+19wsw4119829 1.8 1023342
07:00+19w399631 2.0 1024333
10:00+23wnw458248 0.2 1023673
13:00+22ne1284100 1.7 1022394
16:00+25sse156943 0.1 1020891
19:00+24w278323 0.7 1019232
22:00+22wsw31192100 0.1 1019309